Regional Weather Roundup
Issued by NWS Cleveland, OH

Current Version | Previous Version | Text Only | Print | Product List | Glossary On
Versions: 1 2 3 4 5 6 7 8 9 10 11 12 13 14 15 16 17 18 19 20 21 22 23 24 25 26 27 28 29 30 31 32 33 34 35 36 37 38 39 40 41 42 43 44 45 46 47 48 49 50
000 ASUS41 KCLE 211300 RWRCLE OHIO REGIONAL WEATHER ROUNDUP NATIONAL WEATHER SERVICE WILMINGTON, OH 900 AM EDT MON APR 21 2014 NOTE: "FAIR" INDICATES FEW OR NO CLOUDS BELOW 12,000 FEET WITH NO SIGNIFICANT WEATHER AND/OR OBSTRUCTIONS TO VISIBILITY. OHZ001>008-015>018-024>027-034-035-043-044-211400- NORTHWEST OHIO CITY SKY/WX TMP DP RH WIND PRES REMARKS DEFIANCE MOSUNNY 55 39 54 SW3 30.04S FINDLAY MOSUNNY 59 45 59 S5 30.03F TOLEDO EXPRESS PTSUNNY 56 39 53 CALM 30.03S TOLEDO METCALF PTSUNNY 57 39 51 SW7 30.04F LIMA PTSUNNY 60 41 49 S7 30.04S $$ OHZ009>014-019>023-028>033-038-089-211400- NORTHEAST OHIO CITY SKY/WX TMP DP RH WIND PRES REMARKS CLE-HOPKINS MOSUNNY 64 32 30 S7 30.07F CLE-LAKEFRONT SUNNY 61 31 32 S7 30.02F CUY CO. ARPT PTSUNNY 63 30 29 S9 30.06F LORAIN-ELYRIA SUNNY 61 34 36 S5 30.05F ASHTABULA SUNNY 55 32 41 S8 30.07F AKRON-CANTON MOSUNNY 58 29 32 S7 30.07F WOOSTER NOT AVBL MANSFIELD MOSUNNY 61 36 39 S5 30.06F YOUNGSTOWN MOSUNNY 58 29 33 S6 30.08S $$ OHZ042-051>053-060>062-070>072-077>081-211400- SOUTHWEST OHIO CITY SKY/WX TMP DP RH WIND PRES REMARKS CINC-COVINGTON CLOUDY 60 44 55 SW3 30.07S CINC-LUNKEN MOSUNNY 51 47 86 CALM 30.09S HAMILTON PTSUNNY 54 48 80 CALM 30.08F DAYTON NOT AVBL WRIGHT-PAT AFB PTSUNNY 53 47 79 CALM 30.07S DAYTON GENERAL MOSUNNY 60 44 55 S3 30.06S WILMINGTON MOSUNNY 60 47 61 SW3 30.07F $$ OHZ036-037-039>041-045>050-054>059-063>069-073>076-082>088-211400- CENTRAL AND SOUTHEAST OHIO CITY SKY/WX TMP DP RH WIND PRES REMARKS COLUMBUS PTSUNNY 60 35 39 CALM 30.07S OSU AIRPORT MOSUNNY 59 41 51 SE5 30.06F BOLTON FIELD SUNNY 57 45 62 CALM 30.07F RICKENBACK AFB NOT AVBL NEWARK MOSUNNY 52 41 66 CALM 30.07F MARION MOSUNNY 56 41 57 S8 30.06F LANCASTER SUNNY 53 41 63 CALM 30.08S ZANESVILLE SUNNY 55 39 54 CALM 30.08F NEW PHILLY SUNNY 52 37 56 SE5 30.09F $$

USA.gov is the U.S. government's official web portal to all federal, state and local government web resources and services.